When you browse on this site, cookies collect data to enhance your experience and personalize the content and advertising you see.
Visit our Privacy Policy to learn more. By continuing to use the site, you agree to this use of cookies and data.
  • In Hungary
  • List of Countries
  • For 7 days
  • Water Temperature
  • Weather Map
  • News
  • Weather Widgets
  • user-avatar
    Login

    Hourly Weather Brejo Santo

    Today, 4 April, Saturday

    Time Temperature Precipitation Wind Pressure Humidity
    00:00 +25°C° 0 mm 1 mps 723 mmHg 93%
    01:00 +22°C° 0 mm 0 mps 723 mmHg 94%
    02:00 +22°C° 0 mm 0 mps 722 mmHg 95%
    03:00 +22°C° 0 mm 0 mps 722 mmHg 96%
    04:00 +22°C° 0 mm 0 mps 722 mmHg 96%
    05:00 +22°C° 0 mm 0 mps 723 mmHg 97%
    06:00 +24°C° 0 mm 1 mps 723 mmHg 97%
    07:00 +26°C° 0 mm 1 mps 723 mmHg 91%
    08:00 +28°C° 0 mm 1 mps 724 mmHg 85%
    09:00 +29°C° 0 mm 1 mps 724 mmHg 79%
    10:00 +30°C° 0 mm 1 mps 724 mmHg 74%
    11:00 +31°C° 0 mm 2 mps 724 mmHg 69%
    12:00 +32°C° 0 mm 2 mps 723 mmHg 64%
    13:00 +32°C° 0 mm 2 mps 723 mmHg 64%
    14:00 +32°C° 0 mm 2 mps 722 mmHg 64%
    15:00 +32°C° 0 mm 2 mps 722 mmHg 65%
    16:00 +30°C° 0.1 mm 1 mps 722 mmHg 72%
    17:00 +29°C° 0.1 mm 1 mps 722 mmHg 79%
    18:00 +27°C° 0.1 mm 1 mps 722 mmHg 86%
    19:00 +25°C° 1.6 mm 0 mps 722 mmHg 88%
    20:00 +24°C° 1.6 mm 0 mps 723 mmHg 90%
    21:00 +23°C° 1.6 mm 0 mps 723 mmHg 92%
    22:00 +23°C° 0.6 mm 0 mps 723 mmHg 93%
    23:00 +23°C° 0.6 mm 0 mps 723 mmHg 94%

    Tomorrow, 5 April, Sunday

    Time Temperature Precipitation Wind Pressure Humidity
    00:00 +23°C° 0.6 mm 0 mps 723 mmHg 94%
    01:00 +25°C° 0.3 mm 1 mps 723 mmHg 95%
    02:00 +25°C° 0.3 mm 1 mps 723 mmHg 96%
    03:00 +24°C° 0.3 mm 1 mps 723 mmHg 97%
    04:00 +22°C° 0 mm 0 mps 723 mmHg 97%
    05:00 +22°C° 0 mm 0 mps 723 mmHg 97%
    06:00 +22°C° 0 mm 0 mps 724 mmHg 97%
    07:00 +26°C° 0 mm 1 mps 724 mmHg 92%
    08:00 +27°C° 0 mm 1 mps 725 mmHg 87%
    09:00 +29°C° 0 mm 1 mps 725 mmHg 82%
    10:00 +30°C° 0 mm 2 mps 725 mmHg 76%
    11:00 +31°C° 0 mm 2 mps 724 mmHg 70%
    12:00 +32°C° 0 mm 2 mps 724 mmHg 65%
    13:00 +32°C° 0.4 mm 2 mps 723 mmHg 69%
    14:00 +32°C° 0.4 mm 2 mps 723 mmHg 73%
    15:00 +31°C° 0.4 mm 2 mps 722 mmHg 77%
    16:00 +30°C° 0.4 mm 2 mps 722 mmHg 81%
    17:00 +28°C° 0.4 mm 1 mps 722 mmHg 85%
    18:00 +26°C° 0.4 mm 1 mps 722 mmHg 89%
    19:00 +26°C° 0.1 mm 1 mps 723 mmHg 90%
    20:00 +26°C° 0.1 mm 1 mps 723 mmHg 91%
    21:00 +23°C° 0.1 mm 0 mps 724 mmHg 91%
    22:00 +23°C° 0 mm 0 mps 724 mmHg 92%
    23:00 +23°C° 0 mm 0 mps 724 mmHg 92%

    Day after tomorrow, 6 April, Monday

    Time Temperature Precipitation Wind Pressure Humidity
    00:00 +23°C° 0 mm 0 mps 724 mmHg 92%
    01:00 +22°C° 0 mm 0 mps 724 mmHg 93%
    02:00 +22°C° 0 mm 0 mps 724 mmHg 94%
    03:00 +22°C° 0 mm 0 mps 723 mmHg 94%
    04:00 +22°C° 0 mm 0 mps 724 mmHg 95%
    05:00 +22°C° 0 mm 0 mps 724 mmHg 96%
    06:00 +21°C° 0 mm 0 mps 724 mmHg 97%
    07:00 +25°C° 0 mm 1 mps 725 mmHg 89%
    08:00 +27°C° 0 mm 1 mps 725 mmHg 82%
    09:00 +29°C° 0 mm 2 mps 726 mmHg 75%
    10:00 +30°C° 0 mm 2 mps 726 mmHg 69%
    11:00 +31°C° 0 mm 2 mps 725 mmHg 63%
    12:00 +32°C° 0 mm 2 mps 725 mmHg 57%
    13:00 +32°C° 0.1 mm 2 mps 724 mmHg 59%
    14:00 +32°C° 0.1 mm 2 mps 724 mmHg 61%
    15:00 +32°C° 0.1 mm 2 mps 723 mmHg 63%
    16:00 +30°C° 0.3 mm 2 mps 723 mmHg 71%
    17:00 +28°C° 0.3 mm 1 mps 723 mmHg 80%
    18:00 +26°C° 0.3 mm 1 mps 723 mmHg 89%
    19:00 +26°C° 0 mm 1 mps 723 mmHg 90%
    20:00 +25°C° 0 mm 1 mps 724 mmHg 90%
    21:00 +23°C° 0 mm 0 mps 724 mmHg 91%
    22:00 +22°C° 0 mm 0 mps 724 mmHg 92%
    23:00 +22°C° 0 mm 0 mps 724 mmHg 92%

    7 April, Tuesday

    Time Temperature Precipitation Wind Pressure Humidity
    00:00 +22°C° 0 mm 0 mps 724 mmHg 93%
    01:00 +22°C° 0 mm 0 mps 724 mmHg 94%
    02:00 +21°C° 0 mm 0 mps 723 mmHg 94%
    03:00 +21°C° 0 mm 0 mps 723 mmHg 95%
    04:00 +21°C° 0 mm 0 mps 723 mmHg 95%
    05:00 +21°C° 0 mm 0 mps 724 mmHg 96%
    06:00 +23°C° 0 mm 1 mps 724 mmHg 96%
    07:00 +25°C° 0 mm 1 mps 725 mmHg 89%
    08:00 +27°C° 0 mm 1 mps 725 mmHg 81%
    09:00 +29°C° 0 mm 2 mps 726 mmHg 73%
    10:00 +30°C° 0 mm 2 mps 726 mmHg 67%
    11:00 +31°C° 0 mm 2 mps 725 mmHg 61%
    12:00 +33°C° 0 mm 3 mps 725 mmHg 55%
    13:00 +32°C° 0 mm 2 mps 724 mmHg 55%
    14:00 +32°C° 0 mm 2 mps 724 mmHg 56%
    15:00 +32°C° 0 mm 2 mps 723 mmHg 56%
    16:00 +30°C° 0 mm 2 mps 723 mmHg 63%
    17:00 +28°C° 0 mm 1 mps 723 mmHg 69%
    18:00 +24°C° 0 mm 0 mps 723 mmHg 76%
    19:00 +24°C° 0 mm 0 mps 723 mmHg 77%
    20:00 +23°C° 0 mm 0 mps 723 mmHg 78%
    21:00 +23°C° 0 mm 0 mps 724 mmHg 79%
    22:00 +22°C° 0 mm 0 mps 724 mmHg 81%
    23:00 +24°C° 0 mm 1 mps 724 mmHg 82%

    8 April, Wednesday

    Time Temperature Precipitation Wind Pressure Humidity
    00:00 +24°C° 0 mm 1 mps 723 mmHg 84%
    01:00 +23°C° 0 mm 1 mps 723 mmHg 86%
    02:00 +21°C° 0 mm 0 mps 723 mmHg 87%
    03:00 +21°C° 0 mm 0 mps 723 mmHg 89%
    04:00 +21°C° 0 mm 0 mps 723 mmHg 90%
    05:00 +21°C° 0 mm 0 mps 723 mmHg 91%
    06:00 +21°C° 0 mm 0 mps 723 mmHg 91%
    07:00 +23°C° 0 mm 0 mps 724 mmHg 85%
    08:00 +27°C° 0 mm 1 mps 725 mmHg 78%
    09:00 +30°C° 0 mm 1 mps 725 mmHg 71%
    10:00 +31°C° 0 mm 1 mps 725 mmHg 66%
    11:00 +32°C° 0 mm 1 mps 724 mmHg 61%
    12:00 +34°C° 0 mm 2 mps 724 mmHg 56%
    13:00 +34°C° 0 mm 2 mps 723 mmHg 57%
    14:00 +32°C° 0 mm 2 mps 723 mmHg 58%
    15:00 +32°C° 0 mm 2 mps 722 mmHg 60%
    16:00 +30°C° 0 mm 1 mps 722 mmHg 67%
    17:00 +29°C° 0 mm 1 mps 722 mmHg 74%
    18:00 +27°C° 0 mm 1 mps 722 mmHg 81%
    19:00 +26°C° 0 mm 1 mps 722 mmHg 82%
    20:00 +26°C° 0 mm 1 mps 723 mmHg 84%
    21:00 +23°C° 0 mm 0 mps 723 mmHg 85%
    22:00 +23°C° 0 mm 0 mps 723 mmHg 84%
    23:00 +23°C° 0 mm 0 mps 723 mmHg 83%

    9 April, Thursday

    Time Temperature Precipitation Wind Pressure Humidity
    00:00 +23°C° 0 mm 0 mps 723 mmHg 82%
    01:00 +23°C° 0 mm 0 mps 723 mmHg 85%
    02:00 +24°C° 0 mm 1 mps 723 mmHg 89%
    03:00 +23°C° 0 mm 1 mps 722 mmHg 92%
    04:00 +21°C° 0 mm 0 mps 723 mmHg 93%
    05:00 +21°C° 0 mm 0 mps 723 mmHg 94%
    06:00 +21°C° 0 mm 0 mps 723 mmHg 95%
    07:00 +23°C° 0 mm 0 mps 723 mmHg 87%
    08:00 +28°C° 0 mm 1 mps 724 mmHg 80%
    09:00 +30°C° 0 mm 1 mps 724 mmHg 72%
    10:00 +31°C° 0 mm 1 mps 724 mmHg 68%
    11:00 +32°C° 0 mm 1 mps 724 mmHg 64%
    12:00 +32°C° 0 mm 2 mps 723 mmHg 59%
    13:00 +32°C° 0 mm 2 mps 723 mmHg 60%
    14:00 +32°C° 0 mm 2 mps 722 mmHg 60%
    15:00 +32°C° 0 mm 2 mps 721 mmHg 60%
    16:00 +30°C° 0 mm 2 mps 721 mmHg 68%
    17:00 +29°C° 0 mm 1 mps 721 mmHg 75%
    18:00 +27°C° 0 mm 1 mps 722 mmHg 83%
    19:00 +26°C° 0 mm 1 mps 722 mmHg 84%
    20:00 +24°C° 0 mm 0 mps 722 mmHg 85%
    21:00 +23°C° 0 mm 0 mps 723 mmHg 86%
    22:00 +23°C° 0 mm 0 mps 723 mmHg 87%
    23:00 +24°C° 0 mm 1 mps 723 mmHg 89%
    Show more